Weather History for Billings, MT

Change the Weather History Date:

Wednesday, March 21, 2012

  Actual Average Record
Temperature  
Mean Temperature 50 °F 39 °F  
Max Temperature 64 °F 50 °F 73 °F (1960)
Min Temperature 35 °F 28 °F -1 °F (2002)
Degree Days  
Heating Degree Days 15 26  
Month to date heating degree days 414 600  
Since 1 July heating degree days 4922 5565  
Cooling Degree Days 0 0  
Month to date cooling degree days 0 0  
Year to date cooling degree days 0 0  
Moisture  
Dew Point 26 °F    
Average Humidity 45    
Maximum Humidity 64    
Minimum Humidity 25    
Precipitation  
Precipitation 0.00 in 0.04 in 0.70 in (1946)
Month to date precipitation 0.70 0.64  
Year to date precipitation 1.55 1.60  
Snow  
Snow 0.00 in 0.30 in 7.00 in (1946)
Month to date snowfall 5.9 6.8  
Since 1 July snowfall 34.7 41.3  
Snow Depth 0.00 in    
Sea Level Pressure  
Sea Level Pressure 29.88 in    
Wind  
Wind Speed 17 mph (SW)    
Max Wind Speed 30 mph    
Max Gust Speed 37 mph    
Visibility 10 miles    
Events      
T = Trace of Precipitation, MM = Missing Value Source: NWS Daily Summary

Daily Weather History Graph

Daily Weather History Graph

Search for Another Location

Airport:

Trip Planner

Search our weather history database for the weather conditions in past years. The results will help you decide how hot, cold, wet, or windy it might be!

Date:

Astronomy

Mar. 21, 2012 Rise Set
Actual Time 7:14 AM MDT 7:28 PM MDT
Civil Twilight 6:44 AM MDT 7:58 PM MDT
Nautical Twilight 6:09 AM MDT 8:33 PM MDT
Astronomical Twilight 5:33 AM MDT 9:09 PM MDT
Moon 6:27 AM MDT (3/21) 6:59 PM MDT (3/21)
Length of Visible Light 13h 14m
Length of Day
12h 14m
Waning Crescent, 1% of the Moon is Illuminated
Mar 21
Waning Crescent
Mar 22
New
Mar 30
First Quarter
Apr 6
Full
Apr 13
Last Quarter

Hourly Weather History & Observations

Time (MDT) Temp. Windchill Dew Point Humidity Pressure Visibility Wind Dir Wind Speed Gust Speed Precip Events Conditions
12:53 AM 37.0 °F 29.8 °F 23.0 °F 57% 29.85 in 10.0 mi SW 10.4 mph - N/A   Clear
1:53 AM 36.0 °F 30.3 °F 24.1 °F 62% 29.86 in 10.0 mi South 6.9 mph - N/A   Clear
2:53 AM 39.0 °F 31.4 °F 24.1 °F 55% 29.86 in 10.0 mi WSW 12.7 mph - N/A   Clear
3:53 AM 42.1 °F 33.6 °F 24.1 °F 49% 29.85 in 10.0 mi WSW 18.4 mph - N/A   Clear
4:53 AM 43.0 °F 35.7 °F 24.1 °F 47% 29.86 in 10.0 mi WSW 15.0 mph - N/A   Clear
5:53 AM 44.1 °F 36.8 °F 23.0 °F 43% 29.87 in 10.0 mi WSW 16.1 mph - N/A   Clear
6:53 AM 43.0 °F 36.0 °F 23.0 °F 45% 29.90 in 10.0 mi WSW 13.8 mph - N/A   Scattered Clouds
7:53 AM 43.0 °F 36.4 °F 24.1 °F 47% 29.91 in 10.0 mi WSW 12.7 mph - N/A   Mostly Cloudy
8:53 AM 46.0 °F 39.9 °F 26.1 °F 46% 29.93 in 10.0 mi WSW 13.8 mph - N/A   Scattered Clouds
9:53 AM 50.0 °F - 27.0 °F 41% 29.91 in 10.0 mi SSW 11.5 mph 18.4 mph N/A   Scattered Clouds
10:53 AM 53.1 °F - 26.1 °F 35% 29.91 in 10.0 mi SSW 23.0 mph 28.8 mph N/A   Partly Cloudy
11:53 AM 55.9 °F - 28.0 °F 34% 29.90 in 10.0 mi SSW 16.1 mph 25.3 mph N/A   Partly Cloudy
12:53 PM 59.0 °F - 27.0 °F 29% 29.88 in 10.0 mi SSW 23.0 mph 35.7 mph N/A   Clear
1:53 PM 61.0 °F - 27.0 °F 27% 29.87 in 10.0 mi SW 23.0 mph 34.5 mph N/A   Partly Cloudy
2:53 PM 62.1 °F - 27.0 °F 26% 29.86 in 10.0 mi SSW 24.2 mph 29.9 mph N/A   Partly Cloudy
3:53 PM 63.0 °F - 28.0 °F 27% 29.84 in 10.0 mi SSW 25.3 mph 32.2 mph N/A   Partly Cloudy
4:53 PM 64.0 °F - 28.0 °F 26% 29.83 in 10.0 mi SSW 21.9 mph 27.6 mph N/A   Partly Cloudy
5:53 PM 62.1 °F - 28.0 °F 28% 29.85 in 10.0 mi SSW 19.6 mph 26.5 mph N/A   Partly Cloudy
6:53 PM 61.0 °F - 27.0 °F 27% 29.86 in 10.0 mi SSW 18.4 mph 27.6 mph N/A   Partly Cloudy
7:53 PM 57.9 °F - 27.0 °F 31% 29.88 in 10.0 mi SW 15.0 mph - N/A   Partly Cloudy
8:53 PM 55.0 °F - 27.0 °F 34% 29.89 in 10.0 mi WSW 15.0 mph - N/A   Clear
9:53 PM 52.0 °F - 28.0 °F 40% 29.91 in 10.0 mi WSW 13.8 mph - N/A   Clear
10:53 PM 52.0 °F - 27.0 °F 38% 29.90 in 10.0 mi West 15.0 mph - N/A   Clear
11:53 PM 51.1 °F - 27.0 °F 39% 29.90 in 10.0 mi WSW 15.0 mph - N/A   Clear